JST613 YSSY-YMML

Flight info

Callsign JST613
Flight time 1h 9m
Altitude 32000
Route MARUB7/34R WOL H65 LEECE Q29 ML
Aircraft A320/M-SDE3FGHIRWY/LB1

Departure

Time 2026-05-04 11:35
Airport Sydney Kingsford Smith International Airport (YSSY)

Arrival

Time 2026-05-04 12:44
Airport Melbourne Airport (YMML)
Time Latitude Longitude Altitude Speed Heading
2026-05-04 11:05 -33.93593 151.17701 30 ft 0 kts 77°
2026-05-04 11:19 -33.93582 151.17610 30 ft 0 kts 168°
2026-05-04 11:22 -33.93622 151.17622 30 ft 8 kts 163°
2026-05-04 11:22 -33.93674 151.17653 30 ft 9 kts 149°
2026-05-04 11:23 -33.93735 151.17682 30 ft 5 kts 164°
2026-05-04 11:23 -33.93739 151.17684 30 ft 0 kts 165°
2026-05-04 11:24 -33.94450 151.17903 30 ft 23 kts 195°
2026-05-04 11:25 -33.94610 151.17903 30 ft 24 kts 167°
2026-05-04 11:25 -33.94777 151.17948 30 ft 25 kts 168°
2026-05-04 11:25 -33.94954 151.17994 30 ft 26 kts 168°
2026-05-04 11:26 -33.95089 151.18164 30 ft 15 kts 78°
2026-05-04 11:27 -33.95179 151.18612 30 ft 20 kts 136°
2026-05-04 11:28 -33.95301 151.18712 30 ft 23 kts 161°
2026-05-04 11:28 -33.95467 151.18759 30 ft 26 kts 168°
2026-05-04 11:28 -33.95653 151.18807 30 ft 29 kts 168°
2026-05-04 11:28 -33.95858 151.18859 30 ft 31 kts 167°
2026-05-04 11:29 -33.96072 151.18916 30 ft 27 kts 167°
2026-05-04 11:29 -33.96265 151.18966 30 ft 29 kts 167°
2026-05-04 11:29 -33.96474 151.19020 30 ft 32 kts 168°
2026-05-04 11:29 -33.96684 151.19072 30 ft 29 kts 174°
2026-05-04 11:31 -33.97115 151.19263 29 ft 1 kts 76°
2026-05-04 11:33 -33.97012 151.19359 25 ft 0 kts 347°
2026-05-04 11:34 -33.97007 151.19358 26 ft 11 kts 347°
2026-05-04 11:34 -33.96684 151.19275 23 ft 81 kts 347°
2026-05-04 11:34 -33.95953 151.19086 28 ft 131 kts 348°
2026-05-04 11:34 -33.94968 151.18828 316 ft 148 kts 349°
2026-05-04 11:35 -33.93962 151.18639 951 ft 147 kts
2026-05-04 11:35 -33.93058 151.19211 1543 ft 155 kts 41°
2026-05-04 11:35 -33.92556 151.20435 1965 ft 181 kts 76°
2026-05-04 11:35 -33.92853 151.22011 2300 ft 206 kts 115°
2026-05-04 11:36 -33.93531 151.23544 2802 ft 207 kts 112°
2026-05-04 11:36 -33.93818 151.25214 3346 ft 204 kts 85°
2026-05-04 11:36 -33.93784 151.26929 3878 ft 207 kts 84°
2026-05-04 11:36 -33.93730 151.28743 4139 ft 228 kts 84°
2026-05-04 11:37 -33.93665 151.30755 4378 ft 253 kts 84°
2026-05-04 11:37 -33.93593 151.32972 4749 ft 277 kts 85°
2026-05-04 11:37 -33.93585 151.35354 5370 ft 291 kts 94°
2026-05-04 11:37 -33.94226 151.37685 6176 ft 300 kts 121°
2026-05-04 11:38 -33.95657 151.39568 6663 ft 317 kts 148°
2026-05-04 11:38 -33.97762 151.40495 6973 ft 332 kts 179°
2026-05-04 11:38 -34.00028 151.40097 7544 ft 331 kts 207°
2026-05-04 11:38 -34.01919 151.38577 8223 ft 328 kts 226°
2026-05-04 11:39 -34.03629 151.36735 8943 ft 332 kts 227°
2026-05-04 11:39 -34.05346 151.34852 9674 ft 336 kts 227°
2026-05-04 11:40 -34.16070 151.23057 13683 ft 358 kts 228°
2026-05-04 11:41 -34.17923 151.21023 14269 ft 362 kts 228°
2026-05-04 11:41 -34.19791 151.18970 14840 ft 365 kts 228°
2026-05-04 11:41 -34.21651 151.16923 15403 ft 367 kts 228°
2026-05-04 11:41 -34.23567 151.14811 15969 ft 370 kts 229°
2026-05-04 11:42 -34.25474 151.12702 16521 ft 373 kts 229°
2026-05-04 11:42 -34.27398 151.10574 17088 ft 376 kts 229°
2026-05-04 11:42 -34.29310 151.08457 17643 ft 379 kts 230°
2026-05-04 11:42 -34.31066 151.06109 18189 ft 377 kts 236°
2026-05-04 11:43 -34.32755 151.03673 18728 ft 379 kts 237°
2026-05-04 11:43 -34.34443 151.01211 19257 ft 381 kts 237°
2026-05-04 11:43 -34.36153 150.98706 19799 ft 383 kts 237°
2026-05-04 11:43 -34.37830 150.96249 20349 ft 384 kts 238°
2026-05-04 11:44 -34.39535 150.93748 20855 ft 386 kts 238°
2026-05-04 11:44 -34.41245 150.91232 21353 ft 388 kts 238°
2026-05-04 11:44 -34.42964 150.88704 21842 ft 390 kts 238°
2026-05-04 11:44 -34.44692 150.86163 22327 ft 392 kts 238°
2026-05-04 11:45 -34.46431 150.83612 22810 ft 394 kts 238°
2026-05-04 11:45 -34.48180 150.81050 23304 ft 395 kts 238°
2026-05-04 11:45 -34.49940 150.78473 23734 ft 398 kts 238°
2026-05-04 11:45 -34.51709 150.75880 24115 ft 400 kts 238°
2026-05-04 11:46 -34.53483 150.73279 24521 ft 402 kts 239°
2026-05-04 11:46 -34.55266 150.70658 24903 ft 404 kts 239°
2026-05-04 11:46 -34.57053 150.68021 25269 ft 406 kts 239°
2026-05-04 11:46 -34.58848 150.65369 25632 ft 408 kts 239°
2026-05-04 11:47 -34.60654 150.62704 26016 ft 410 kts 239°
2026-05-04 11:47 -34.62470 150.60027 26387 ft 411 kts 239°
2026-05-04 11:47 -34.64293 150.57337 26734 ft 413 kts 239°
2026-05-04 11:47 -34.66122 150.54629 27086 ft 415 kts 239°
2026-05-04 11:48 -34.67958 150.51909 27436 ft 417 kts 239°
2026-05-04 11:48 -34.69805 150.49177 27766 ft 419 kts 239°
2026-05-04 11:48 -34.71034 150.47357 28001 ft 421 kts 239°
2026-05-04 11:48 -34.72889 150.44606 28315 ft 423 kts 239°
2026-05-04 11:49 -34.74759 150.41831 28636 ft 426 kts 239°
2026-05-04 11:49 -34.76641 150.39038 28992 ft 428 kts 239°
2026-05-04 11:49 -34.78532 150.36230 29338 ft 430 kts 239°
2026-05-04 11:49 -34.80435 150.33402 29705 ft 432 kts 239°
2026-05-04 11:50 -34.82341 150.30565 30012 ft 435 kts 239°
2026-05-04 11:50 -34.84257 150.27717 30390 ft 434 kts 239°
2026-05-04 11:50 -34.86168 150.24882 30795 ft 432 kts 239°
2026-05-04 11:50 -34.88069 150.22055 31209 ft 430 kts 239°
2026-05-04 11:51 -34.89959 150.19240 31670 ft 428 kts 239°
2026-05-04 11:51 -34.91836 150.16434 32023 ft 427 kts 239°
2026-05-04 11:51 -34.93701 150.13643 32085 ft 422 kts 239°
2026-05-04 11:52 -34.97377 150.08139 32113 ft 417 kts 240°
2026-05-04 11:52 -35.01022 150.02651 32103 ft 416 kts 240°
2026-05-04 11:53 -35.04682 149.97138 32114 ft 425 kts 240°
2026-05-04 11:53 -35.08339 149.91313 32100 ft 439 kts 242°
2026-05-04 11:55 -35.22960 149.66200 32114 ft 456 kts 243°
2026-05-04 11:56 -35.26653 149.59902 32138 ft 456 kts 243°
2026-05-04 11:56 -35.30338 149.53591 32149 ft 455 kts 243°
2026-05-04 11:57 -35.34012 149.47279 32149 ft 455 kts 243°
2026-05-04 11:57 -35.37677 149.40974 32143 ft 455 kts 243°
2026-05-04 11:58 -35.41345 149.34662 32139 ft 454 kts 243°
2026-05-04 11:58 -35.44987 149.28385 32147 ft 455 kts 243°
2026-05-04 11:59 -35.48654 149.22056 32133 ft 455 kts 243°
2026-05-04 11:59 -35.52316 149.15715 32122 ft 455 kts 243°
2026-05-04 12:00 -35.55978 149.09368 32114 ft 455 kts 243°
2026-05-04 12:00 -35.59633 149.03011 32145 ft 456 kts 243°
2026-05-04 12:01 -35.63283 148.96648 32138 ft 456 kts 243°
2026-05-04 12:02 -35.76055 148.74309 32121 ft 457 kts 243°
2026-05-04 12:03 -35.79706 148.67903 32116 ft 456 kts 243°
2026-05-04 12:03 -35.83341 148.61502 32104 ft 456 kts 243°
2026-05-04 12:04 -35.86979 148.55093 32130 ft 456 kts 243°
2026-05-04 12:04 -35.90615 148.48666 32103 ft 457 kts 243°
2026-05-04 12:05 -35.94239 148.42223 32123 ft 457 kts 243°
2026-05-04 12:05 -35.97861 148.35782 32117 ft 456 kts 243°
2026-05-04 12:06 -36.01484 148.29342 32110 ft 457 kts 243°
2026-05-04 12:06 -36.05104 148.22883 32092 ft 457 kts 243°
2026-05-04 12:07 -36.08717 148.16403 32137 ft 457 kts 243°
2026-05-04 12:07 -36.12322 148.09937 32128 ft 457 kts 243°
2026-05-04 12:08 -36.15912 148.03520 32122 ft 456 kts 243°
2026-05-04 12:08 -36.19528 147.97068 32111 ft 456 kts 243°
2026-05-04 12:09 -36.23126 147.90613 32125 ft 456 kts 243°
2026-05-04 12:09 -36.26714 147.84152 32147 ft 455 kts 244°
2026-05-04 12:10 -36.30295 147.77698 32117 ft 454 kts 243°
2026-05-04 12:10 -36.33873 147.71239 32100 ft 454 kts 244°
2026-05-04 12:11 -36.37448 147.64774 32117 ft 454 kts 244°
2026-05-04 12:11 -36.41012 147.58298 32120 ft 454 kts 244°
2026-05-04 12:12 -36.44573 147.51822 32093 ft 454 kts 244°
2026-05-04 12:12 -36.48133 147.45337 32082 ft 454 kts 244°
2026-05-04 12:14 -36.62300 147.19397 32065 ft 454 kts 244°
2026-05-04 12:15 -36.65839 147.12885 32070 ft 454 kts 244°
2026-05-04 12:15 -36.69371 147.06365 32092 ft 454 kts 244°
2026-05-04 12:16 -36.72896 146.99840 32074 ft 454 kts 244°
2026-05-04 12:16 -36.76423 146.93303 32065 ft 454 kts 244°
2026-05-04 12:17 -36.79960 146.86766 32069 ft 454 kts 244°
2026-05-04 12:17 -36.83487 146.80209 32092 ft 455 kts 244°
2026-05-04 12:18 -36.87013 146.73650 32076 ft 455 kts 244°
2026-05-04 12:18 -36.90536 146.67089 31614 ft 454 kts 244°
2026-05-04 12:19 -36.92294 146.63811 30789 ft 455 kts 244°
2026-05-04 12:19 -36.94053 146.60516 29890 ft 457 kts 245°
2026-05-04 12:19 -36.95818 146.57203 29344 ft 460 kts 244°
2026-05-04 12:19 -36.97588 146.53870 28855 ft 462 kts 244°
2026-05-04 12:20 -36.99370 146.50513 28363 ft 464 kts 244°
2026-05-04 12:20 -37.01161 146.47149 27874 ft 465 kts 243°
2026-05-04 12:20 -37.02958 146.43778 27388 ft 466 kts 243°
2026-05-04 12:20 -37.04760 146.40398 26913 ft 467 kts 243°
2026-05-04 12:21 -37.06564 146.37009 26442 ft 469 kts 242°
2026-05-04 12:21 -37.08375 146.33597 25876 ft 472 kts 241°
2026-05-04 12:21 -37.10191 146.30165 25337 ft 473 kts 241°
2026-05-04 12:21 -37.11773 146.26590 24923 ft 468 kts 247°
2026-05-04 12:22 -37.13213 146.22961 24310 ft 463 kts 247°
2026-05-04 12:22 -37.14610 146.19351 23454 ft 458 kts 247°
2026-05-04 12:22 -37.15961 146.15775 22479 ft 452 kts 247°
2026-05-04 12:22 -37.17297 146.12225 21550 ft 446 kts 247°
2026-05-04 12:23 -37.18618 146.08731 20683 ft 440 kts 247°
2026-05-04 12:23 -37.19940 146.05278 20179 ft 440 kts 247°
2026-05-04 12:23 -37.21252 146.01820 19684 ft 438 kts 247°
2026-05-04 12:23 -37.22547 145.98373 19271 ft 435 kts 247°
2026-05-04 12:24 -37.23816 145.94986 18990 ft 433 kts 247°
2026-05-04 12:24 -37.25112 145.91521 18784 ft 432 kts 247°
2026-05-04 12:24 -37.26371 145.88156 18616 ft 431 kts 247°
2026-05-04 12:24 -37.27658 145.84714 18475 ft 430 kts 247°
2026-05-04 12:25 -37.29163 145.81521 18341 ft 432 kts 237°
2026-05-04 12:25 -37.30953 145.78499 18186 ft 431 kts 236°
2026-05-04 12:25 -37.32636 145.75397 18019 ft 429 kts 240°
2026-05-04 12:25 -37.34236 145.72240 17855 ft 428 kts 240°
2026-05-04 12:26 -37.35831 145.69085 17702 ft 427 kts 240°
2026-05-04 12:26 -37.37420 145.65943 17552 ft 426 kts 240°
2026-05-04 12:26 -37.39077 145.62854 17302 ft 428 kts 234°
2026-05-04 12:26 -37.41202 145.60238 16822 ft 428 kts 224°
2026-05-04 12:27 -37.43442 145.57782 16502 ft 426 kts 224°
2026-05-04 12:27 -37.45679 145.55341 16282 ft 425 kts 224°
2026-05-04 12:27 -37.47911 145.52909 16098 ft 424 kts 224°
2026-05-04 12:27 -37.50134 145.50482 15948 ft 422 kts 224°
2026-05-04 12:28 -37.52344 145.48057 15805 ft 420 kts 224°
2026-05-04 12:28 -37.54487 145.45580 15659 ft 417 kts 231°
2026-05-04 12:28 -37.56166 145.42649 15524 ft 407 kts 239°
2026-05-04 12:28 -37.57691 145.39754 15387 ft 386 kts 239°
2026-05-04 12:29 -37.59135 145.36993 15257 ft 368 kts 239°
2026-05-04 12:29 -37.60518 145.34368 15131 ft 352 kts 237°
2026-05-04 12:29 -37.62253 145.32275 15012 ft 344 kts 216°
2026-05-04 12:29 -37.64450 145.31185 14884 ft 340 kts 194°
2026-05-04 12:30 -37.66791 145.31077 14754 ft 333 kts 183°
2026-05-04 12:30 -37.69077 145.31201 14555 ft 326 kts 182°
2026-05-04 12:30 -37.71328 145.31346 14254 ft 323 kts 182°
2026-05-04 12:30 -37.73564 145.31504 13905 ft 321 kts 182°
2026-05-04 12:31 -37.75788 145.31666 13531 ft 319 kts 182°
2026-05-04 12:31 -37.78000 145.31830 13174 ft 318 kts 182°
2026-05-04 12:31 -37.80195 145.31994 12800 ft 316 kts 182°
2026-05-04 12:31 -37.82388 145.32158 12420 ft 314 kts 182°
2026-05-04 12:32 -37.84560 145.32373 12067 ft 315 kts 175°
2026-05-04 12:32 -37.88217 145.35420 11381 ft 330 kts 124°
2026-05-04 12:32 -37.89071 145.38102 11009 ft 331 kts 99°
2026-05-04 12:33 -37.89032 145.40943 10651 ft 327 kts 73°
2026-05-04 12:33 -37.88093 145.43533 10359 ft 314 kts 47°
2026-05-04 12:33 -37.86544 145.45290 10148 ft 298 kts 24°
2026-05-04 12:33 -37.84664 145.46208 9832 ft 285 kts
2026-05-04 12:34 -37.82735 145.46252 9475 ft 273 kts 344°
2026-05-04 12:34 -37.80971 145.45519 9124 ft 263 kts 327°
2026-05-04 12:34 -37.79530 145.44166 8759 ft 256 kts 310°
2026-05-04 12:34 -37.78511 145.42361 8405 ft 251 kts 294°
2026-05-04 12:35 -37.77888 145.40316 8053 ft 249 kts 288°
2026-05-04 12:35 -37.77309 145.38256 7703 ft 248 kts 288°
2026-05-04 12:35 -37.76730 145.36206 7382 ft 247 kts 288°
2026-05-04 12:35 -37.76151 145.34168 7071 ft 246 kts 289°
2026-05-04 12:36 -37.75574 145.32143 6729 ft 244 kts 289°
2026-05-04 12:36 -37.74999 145.30127 6422 ft 243 kts 289°
2026-05-04 12:36 -37.74613 145.28774 6203 ft 242 kts 288°
2026-05-04 12:36 -37.74045 145.26777 5872 ft 241 kts 288°
2026-05-04 12:37 -37.73477 145.24788 5513 ft 241 kts 288°
2026-05-04 12:37 -37.72723 145.22153 5016 ft 243 kts 287°
2026-05-04 12:37 -37.72150 145.20143 4651 ft 243 kts 287°
2026-05-04 12:37 -37.71761 145.18775 4277 ft 248 kts 287°
2026-05-04 12:38 -37.71188 145.16760 3995 ft 244 kts 288°
2026-05-04 12:38 -37.70617 145.14757 3865 ft 235 kts 288°
2026-05-04 12:38 -37.70082 145.12883 3769 ft 225 kts 288°
2026-05-04 12:38 -37.69563 145.11070 3686 ft 214 kts 288°
2026-05-04 12:39 -37.69069 145.09351 3606 ft 203 kts 288°
2026-05-04 12:39 -37.68600 145.07723 3532 ft 192 kts 288°
2026-05-04 12:39 -37.68148 145.06149 3461 ft 190 kts 287°
2026-05-04 12:39 -37.67700 145.04583 3388 ft 189 kts 287°
2026-05-04 12:40 -37.67316 145.02999 3255 ft 188 kts 278°
2026-05-04 12:40 -37.67183 145.01367 3031 ft 186 kts 274°
2026-05-04 12:40 -37.67085 144.99749 2794 ft 180 kts 274°
2026-05-04 12:40 -37.66995 144.98216 2562 ft 172 kts 274°
2026-05-04 12:41 -37.66910 144.96735 2336 ft 168 kts 274°
2026-05-04 12:41 -37.66828 144.95297 2125 ft 158 kts 275°
2026-05-04 12:41 -37.66754 144.93991 1939 ft 142 kts 276°
2026-05-04 12:41 -37.66684 144.92774 1726 ft 137 kts 276°
2026-05-04 12:42 -37.66615 144.91577 1514 ft 137 kts 276°
2026-05-04 12:42 -37.66547 144.90390 1335 ft 136 kts 277°
2026-05-04 12:42 -37.66479 144.89207 1131 ft 135 kts 278°
2026-05-04 12:42 -37.66411 144.88025 966 ft 135 kts 279°
2026-05-04 12:43 -37.66343 144.86849 780 ft 135 kts 279°
2026-05-04 12:43 -37.66274 144.85660 600 ft 136 kts 279°
2026-05-04 12:43 -37.66205 144.84474 440 ft 134 kts 276°
2026-05-04 12:43 -37.66145 144.83458 415 ft 81 kts 272°
2026-05-04 12:44 -37.66146 144.83006 409 ft 35 kts 253°
2026-05-04 12:44 -37.66215 144.82807 401 ft 0 kts 243°
2026-05-04 12:44 -37.66221 144.82791 398 ft 6 kts 243°
2026-05-04 12:45 -37.66259 144.82718 390 ft 14 kts 226°
2026-05-04 12:45 -37.66368 144.82683 390 ft 20 kts 166°
2026-05-04 12:45 -37.66449 144.82834 385 ft 24 kts 92°
2026-05-04 12:45 -37.66461 144.83046 392 ft 24 kts 94°
2026-05-04 12:46 -37.66471 144.83247 399 ft 23 kts 93°
2026-05-04 12:46 -37.66484 144.83448 403 ft 23 kts 94°
2026-05-04 12:46 -37.66490 144.83553 404 ft 0 kts 94°
2026-05-04 12:47 -37.66492 144.83584 404 ft 10 kts 94°
2026-05-04 12:47 -37.66499 144.83711 405 ft 16 kts 93°
2026-05-04 12:47 -37.66509 144.83865 404 ft 19 kts 95°
2026-05-04 12:48 -37.66604 144.83949 399 ft 20 kts 162°
2026-05-04 12:48 -37.66756 144.83977 394 ft 25 kts 174°
2026-05-04 12:48 -37.66913 144.84003 388 ft 23 kts 172°
2026-05-04 12:48 -37.67086 144.84038 383 ft 26 kts 169°
2026-05-04 12:49 -37.67265 144.84069 377 ft 28 kts 174°
2026-05-04 12:49 -37.67445 144.84100 372 ft 19 kts 169°
2026-05-04 12:49 -37.67494 144.84236 373 ft 19 kts 87°
2026-05-04 12:49 -37.67475 144.84402 377 ft 19 kts 81°
2026-05-04 12:50 -37.67492 144.84529 378 ft 15 kts 141°
2026-05-04 12:50 -37.67606 144.84561 375 ft 19 kts 173°
2026-05-04 12:50 -37.67729 144.84598 370 ft 14 kts 133°
2026-05-04 12:50 -37.67735 144.84726 371 ft 16 kts 81°
2026-05-04 12:51 -37.67721 144.84839 373 ft 0 kts 81°
2026-05-04 12:51 -37.67721 144.84840 373 ft 1 kts 81°
2026-05-04 12:51 -37.67708 144.84854 373 ft 4 kts 26°
2026-05-04 12:51 -37.67682 144.84856 374 ft 3 kts 355°
2026-05-04 12:52 -37.67650 144.84851 375 ft 8 kts 351°
2026-05-04 12:52 -37.67623 144.84845 376 ft 3 kts 351°
2026-05-04 12:52 -37.67616 144.84844 377 ft 0 kts 351°